Zurück zum Katalog

NOAA 16 DEB

AktivSSO
NORAD 41715·DEBRIS·🇺🇸 United States

Gestartet Sep 21, 2000 von Vandenberg Space Force Base

Loading…

Nächste Überflüge (nächste 24 Stunden)

TLE

AktuellSource: Space-Track

Epoche: Sep 12, 2026, 08:47 UTC

1 41715U 00055PV  26255.36611256  .00002880  00000-0  10542-2 0  9990
2 41715  98.6389 301.4732 0011411  81.2037 279.0439 14.33628281539045

Verfolge NOAA 16 DEB in Echtzeit mit AllMySat

Download on the App Store